Weather observations for the past three days for
Orange, Orange County Airport
Imperial (Metric)
Date Time (edt) Wind (mph) Vis. (mi.) Weather Sky Cond. Temperature (ºF) Relative Humidity Wind Chill (°F) Heat Index (°F) Pressure Precipitation (in)
Air Dwpt 6 hour altimeter (in) sea level (mb) 1 hr 3 hr 6 hr
Max. Min.
19 14:35 E 6 10.00 Mostly Cloudy SCT036 SCT050 BKN060 80.6 68 66% 83 30.14 0.0
19 14:15 SE 7 10.00 Partly Cloudy SCT036 SCT075 SCT090 80.6 68 66% 83 30.15 0.0
19 13:55 E 3 10.00 Mostly Cloudy SCT075 BKN090 82.4 66.2 58% 85 30.16 0.0
19 13:35 Calm 10.00 Mostly Cloudy SCT034 SCT060 BKN070 80.6 64.4 58% 82 30.16 0.0
19 13:15 SE 3 10.00 Partly Cloudy SCT050 80.6 66.2 62% 83 30.16 0.0
19 12:55 Calm 10.00 Mostly Cloudy SCT032 SCT044 BKN050 80.6 66.2 62% 83 30.16 0.0
19 12:35 E 6 10.00 Mostly Cloudy SCT032 SCT042 BKN110 80.6 68 66% 83 30.16 0.0
19 12:15 Calm 10.00 Mostly Cloudy SCT032 BKN110 80.6 68 66% 83 30.16 0.0
19 11:55 E 3 10.00 Mostly Cloudy SCT029 BKN110 78.8 68 70% 81 30.17 0.0
19 11:15 NE 6 10.00 Mostly Cloudy BKN110 78.8 66.2 65% 81 30.16 0.0
19 10:55 NE 6 10.00 Partly Cloudy SCT110 77 64.4 65% 79 30.16 0.0
19 10:35 NE 6 10.00 Overcast OVC110 77 64.4 65% 79 30.16 0.0
19 10:15 NE 6 10.00 Overcast OVC110 75.2 64.4 69% 77 30.16 0.0
19 09:55 N 8 10.00 Overcast OVC110 73.4 62.6 69% 30.16 0.0
19 09:35 N 7 10.00 Mostly Cloudy BKN110 73.4 62.6 69% 30.16 0.0
19 09:15 N 6 10.00 Overcast OVC110 71.6 60.8 69% 30.16 0.0
19 08:55 N 7 10.00 Overcast OVC110 71.6 62.6 73% 30.15 0.0
19 08:35 N 6 10.00 Overcast OVC100 71.6 60.8 69% 30.15 0.0
19 08:15 N 5 10.00 Overcast OVC090 69.8 60.8 73% 30.14 0.0
19 07:55 N 6 10.00 Overcast OVC080 69.8 60.8 73% 30.14 0.0
19 07:35 N 3 10.00 Overcast OVC080 69.8 60.8 73% 30.13 0.0
19 07:15 Calm 10.00 Mostly Cloudy BKN080 68 60.8 78% 30.13 0.0
19 06:55 Calm 10.00 Fair CLR 68 60.8 78% 30.12 0.0
19 06:35 Calm 10.00 Fair CLR 68 60.8 78% 30.11 0.0
19 06:15 Calm 10.00 Fair CLR 68 60.8 78% 30.1 0.0
19 05:55 N 5 10.00 Fair CLR 68 60.8 78% 30.09 0.0
19 05:35 NE 3 10.00 Fair CLR 68 62.6 83% 30.08 0.0
19 05:15 N 3 10.00 Fair CLR 69.8 62.6 78% 30.07 0.0
19 04:55 N 3 10.00 Fair CLR 68 64.4 88% 30.07 0.0
19 04:35 Calm 10.00 Fair CLR 64.4 64.4 100% 30.06 0.0
19 04:15 Calm 10.00 Fair CLR 64.4 64.4 100% 30.06 0.0
19 03:55 Calm 7.00 Fair CLR 64.4 64.4 100% 30.06 0.0
19 03:35 Calm 10.00 Fair CLR 64.4 64.4 100% 30.06 0.0
19 03:15 Calm 10.00 Fair CLR 64.4 64.4 100% 30.06 0.0
19 02:55 Calm 10.00 Partly Cloudy SCT090 66.2 66.2 100% 30.06 0.0
19 02:35 Calm 10.00 Mostly Cloudy BKN090 66.2 66.2 100% 30.06 0.0
19 02:15 Calm 10.00 Fair CLR 66.2 66.2 100% 30.05 0.0
19 01:55 Calm 10.00 Partly Cloudy SCT075 68 66.2 94% 30.06 0.0
19 01:35 Calm 10.00 Partly Cloudy SCT075 SCT090 69.8 66.2 88% 30.06 0.0
19 01:15 Calm 10.00 Mostly Cloudy BKN075 BKN095 68 68 100% 30.06 0.0
19 00:55 Calm 7.00 Mostly Cloudy SCT075 BKN095 68 68 100% 30.06 0.0
19 00:35 Calm 7.00 Fair CLR 68 68 100% 30.06 0.0
19 00:15 Calm 10.00 Partly Cloudy SCT120 68 68 100% 30.05 0.0
18 23:55 Calm 10.00 Mostly Cloudy BKN120 69.8 68 94% 30.05 0.0
18 23:35 Calm 10.00 Partly Cloudy SCT120 68 68 100% 30.04 0.0
18 23:15 Calm 10.00 Partly Cloudy SCT120 69.8 69.8 100% 30.04 0.0
18 22:55 Calm 10.00 Mostly Cloudy SCT090 BKN120 69.8 69.8 100% 30.04 0.0
18 22:35 Calm 10.00 Overcast OVC090 69.8 69.8 100% 30.04 0.0
18 22:15 Calm 10.00 Overcast OVC090 69.8 69.8 100% 30.03 0.0
18 21:55 Calm 10.00 Mostly Cloudy BKN090 69.8 69.8 100% 30.03 0.0
18 21:35 Calm 10.00 Overcast OVC090 71.6 69.8 94% 30.03 0.0
18 21:15 Calm 10.00 Overcast OVC090 71.6 69.8 94% 30.03 0.0
18 20:55 Calm 10.00 Partly Cloudy SCT090 73.4 68 83% 30.02 0.0
18 20:35 Calm 10.00 Partly Cloudy SCT110 73.4 68 83% 30.01 0.0
18 20:15 Calm 10.00 Mostly Cloudy BKN110 75.2 68 78% 76 30 0.0
18 19:55 Calm 10.00 Partly Cloudy SCT110 78.8 64.4 61% 81 29.99 0.0
18 19:35 Calm 10.00 Fair CLR 78.8 64.4 61% 81 29.98 0.0
18 19:15 Calm 10.00 Partly Cloudy SCT110 80.6 64.4 58% 82 29.97 0.0
18 18:55 N 3 10.00 Fair CLR 78.8 64.4 61% 81 29.97 0.0
18 18:35 Calm 10.00 Fair CLR 78.8 66.2 65% 81 29.97 0.0
18 18:15 N 5 10.00 Partly Cloudy SCT110 78.8 64.4 61% 81 29.96 0.0
18 17:55 N 3 10.00 Fair CLR 80.6 62.6 54% 82 29.97 0.0
18 17:35 NE 5 10.00 Partly Cloudy SCT120 80.6 62.6 54% 82 29.97 0.0
18 17:15 NE 5 10.00 Partly Cloudy SCT120 80.6 60.8 51% 81 29.97 0.0
18 16:55 NE 7 10.00 Partly Cloudy SCT120 82.4 60.8 48% 83 29.98 0.0
18 16:35 NE 5 10.00 Partly Cloudy SCT029 SCT120 80.6 64.4 58% 82 29.97 0.0
18 16:15 N 6 10.00 Partly Cloudy SCT029 SCT120 80.6 68 66% 83 29.97 0.0
18 15:55 NE 7 10.00 Mostly Cloudy BKN120 78.8 68 70% 81 29.98 0.0
18 15:35 N 6 10.00 Mostly Cloudy BKN120 78.8 69.8 74% 81 29.98 0.0
18 15:15 N 6 10.00 Partly Cloudy SCT120 77 68 74% 79 29.98 0.0
18 14:55 N 3 10.00 Fair CLR 77 68 74% 79 30 0.0
18 14:35 N 6 10.00 Partly Cloudy SCT039 SCT055 SCT075 77 69.8 79% 79 30 0.0
18 14:15 N 3 10.00 Light Rain SCT032 BKN060 OVC085 77 71.6 83% 78 30 0.0
18 13:55 N 5 10.00 Light Rain SCT075 OVC090 77 69.8 79% 79 30 0.0 0.01
18 13:35 N 3 10.00 Light Rain BKN100 OVC120 77 68 74% 79 30 0.0
18 13:15 N 3 10.00 Light Rain SCT090 OVC120 77 64.4 65% 79 30 0.0
18 12:55 N 5 10.00 Partly Cloudy SCT090 SCT120 78.8 66.2 65% 81 30 0.0
18 12:35 N 8 10.00 Fair CLR 78.8 64.4 61% 81 29.99 0.0
18 12:15 N 9 10.00 Fair CLR 80.6 64.4 58% 82 29.99 0.0
18 11:55 N 9 10.00 Fair CLR 80.6 64.4 58% 82 29.99 0.0
18 11:35 N 8 10.00 Fair CLR 78.8 68 70% 81 29.99 0.0
18 11:15 N 6 10.00 Fair CLR 78.8 68 70% 81 29.98 0.0
18 10:55 N 8 10.00 Fair CLR 77 69.8 79% 79 29.99 0.0
18 10:35 N 8 10.00 Fair CLR 77 69.8 79% 79 30 0.0
18 10:15 N 7 10.00 Fair CLR 77 69.8 79% 79 29.99 0.0
18 09:55 NE 3 10.00 Fair CLR 77 71.6 83% 78 29.99 0.0
18 09:35 NE 3 10.00 Fair CLR 75.2 71.6 89% 75 29.98 0.0
18 09:15 Calm 10.00 Partly Cloudy SCT090 75.2 73.4 94% 74 29.98 0.0
18 08:55 Calm 10.00 Partly Cloudy SCT004 SCT090 SCT110 73.4 73.4 100% 29.98 0.0
18 08:35 Calm 10.00 Mostly Cloudy SCT004 BKN100 73.4 73.4 100% 29.98 0.0
18 08:15 Calm 10.00 Mostly Cloudy SCT004 BKN095 BKN120 71.6 71.6 100% 29.97 0.0
18 07:55 Calm 10.00 Overcast BKN002 BKN095 OVC120 71.6 71.6 100% 29.97 0.0
18 07:35 Calm 7.00 Mostly Cloudy BKN002 71.6 71.6 100% 29.96 0.0
18 07:15 Calm 4.00 Fog/Mist BKN002 71.6 71.6 100% 29.95 0.0
18 06:55 Calm 2.50 Fog/Mist BKN002 71.6 71.6 100% 29.95 0.0
18 06:35 Calm 4.00 Fog/Mist OVC002 69.8 69.8 100% 29.94 0.0
18 06:15 Calm 10.00 Overcast OVC002 69.8 69.8 100% 29.93 0.0
18 05:55 Calm 7.00 Mostly Cloudy BKN002 69.8 69.8 100% 29.92 0.0
18 05:35 Calm 10.00 Partly Cloudy SCT002 69.8 69.8 100% 29.91 0.0
18 05:15 Calm 10.00 Fair CLR 69.8 69.8 100% 29.9 0.0
18 04:55 Calm 10.00 Fair CLR 69.8 69.8 100% 29.9 0.0
18 04:35 Calm 7.00 Fair CLR 69.8 69.8 100% 29.89 0.0
18 04:15 Calm 10.00 Partly Cloudy SCT110 71.6 71.6 100% 29.9 0.0
18 03:55 Calm 10.00 Partly Cloudy SCT100 71.6 71.6 100% 29.89 0.0
18 03:35 Calm 10.00 Fair CLR 71.6 71.6 100% 29.89 0.0
18 03:15 Calm 10.00 Fair CLR 71.6 71.6 100% 29.89 0.0
18 02:55 Calm 10.00 Fair CLR 71.6 71.6 100% 29.9 0.0
18 02:35 Calm 10.00 Fair CLR 71.6 71.6 100% 29.9 0.0
18 02:15 Calm 10.00 Fair CLR 71.6 71.6 100% 29.91 0.0
18 01:55 Calm 10.00 Fair CLR 71.6 71.6 100% 29.91 0.0
18 01:35 Calm 10.00 Partly Cloudy SCT060 71.6 71.6 100% 29.91 0.0
18 01:15 S 5 10.00 Partly Cloudy SCT070 73.4 73.4 100% 29.91 0.0
18 00:55 Calm 10.00 Partly Cloudy SCT013 SCT055 SCT075 73.4 73.4 100% 29.91 0.0
18 00:35 Calm 10.00 Mostly Cloudy SCT008 SCT013 BKN055 71.6 71.6 100% 29.92 0.0
18 00:15 N 7 10.00 Partly Cloudy SCT080 71.6 71.6 100% 29.92 0.0
17 23:55 SW 5 10.00 Partly Cloudy SCT080 71.6 71.6 100% 29.91 0.0
17 23:35 SW 6 10.00 Partly Cloudy SCT120 71.6 71.6 100% 29.91 0.0
17 23:15 SW 7 10.00 Partly Cloudy SCT120 71.6 71.6 100% 29.91 0.0
17 22:55 SW 5 10.00 Partly Cloudy SCT080 SCT120 71.6 71.6 100% 29.91 0.0
17 22:35 SW 5 10.00 Partly Cloudy SCT080 71.6 71.6 100% 29.92 0.0
17 22:15 SW 8 10.00 Partly Cloudy SCT006 SCT080 SCT100 71.6 71.6 100% 29.91 0.0
17 21:55 SW 10 10.00 Partly Cloudy SCT006 SCT080 SCT100 71.6 71.6 100% 29.92 0.0
17 21:35 SW 7 10.00 Fair CLR 71.6 71.6 100% 29.91 0.0
17 21:15 S 3 10.00 Fair CLR 71.6 71.6 100% 29.89 0.0
17 20:55 SW 7 10.00 Fair CLR 71.6 71.6 100% 29.89 0.0
17 20:35 SW 6 10.00 Fair CLR 71.6 71.6 100% 29.88 0.0
17 20:15 SW 7 10.00 Fair CLR 73.4 71.6 94% 29.88 0.0
17 19:55 SW 5 10.00 Partly Cloudy SCT090 SCT100 73.4 73.4 100% 29.88 0.0
17 19:35 SW 7 10.00 Mostly Cloudy BKN090 73.4 73.4 100% 29.88 0.0
17 19:15 Calm 10.00 Partly Cloudy SCT100 73.4 73.4 100% 29.87 0.0
17 18:55 SW 5 10.00 Partly Cloudy SCT100 73.4 73.4 100% 29.87 0.0
17 18:35 S 5 10.00 Fair CLR 73.4 73.4 100% 29.88 0.0
17 18:15 Calm 10.00 Partly Cloudy SCT006 SCT100 73.4 73.4 100% 29.87 0.0
17 17:55 Calm 10.00 Thunderstorm Light Rain in Vicinity SCT011 SCT019 BKN080 73.4 73.4 100% 29.86 0.0 0.39
17 17:35 W 8 G 22 1.25 Thunderstorm Heavy Rain SCT011 BKN019 OVC060 73.4 73.4 100% 29.87 0.0 0.36
17 17:15 NW 7 G 20 10.00 Thunderstorm Rain in Vicinity SCT060 BKN070 BKN100 84.2 68 58% 87 29.82 0.0
17 16:55 S 5 10.00 Thunderstorm in Vicinity SCT110 91.4 68 46% 96 29.81 0.0
17 16:35 S 10 G 16 10.00 Partly Cloudy SCT110 91.4 68 46% 96 29.81 0.0
17 16:15 S 10 10.00 Partly Cloudy SCT065 95 68 41% 100 29.83 0.0
17 15:55 S 12 G 17 10.00 Partly Cloudy SCT065 96.8 68 39% 102 29.83 0.0
17 15:35 S 13 G 17 10.00 Fair CLR 95 64.4 36% 97 29.85 0.0
17 15:15 S 9 G 17 10.00 Fair CLR 95 68 41% 100 29.85 0.0
17 14:55 S 10 G 18 10.00 Partly Cloudy SCT060 95 68 41% 100 29.86 0.0
17 14:35 S 5 10.00 Partly Cloudy SCT060 93.2 68 44% 98 29.87 0.0
17 14:15 S 9 10.00 Partly Cloudy SCT055 95 68 41% 100 29.87 0.0
17 13:55 S 5 10.00 Partly Cloudy SCT055 93.2 69.8 47% 99 29.88 0.0
17 13:35 SE 7 10.00 Fair CLR 91.4 69.8 49% 97 29.89 0.0
17 13:15 S 6 10.00 Fair CLR 91.4 68 46% 96 29.89 0.0
17 12:55 SE 6 10.00 Fair CLR 93.2 69.8 47% 99 29.9 0.0
17 12:35 W 5 10.00 Fair CLR 93.2 64.4 39% 95 29.9 0.0
17 12:15 S 3 10.00 Fair CLR 93.2 66.2 41% 96 29.9 0.0
17 11:55 S 3 10.00 Fair CLR 93.2 68 44% 98 29.91 0.0
17 11:35 Calm 10.00 Fair CLR 91.4 68 46% 96 29.92 0.0
17 11:15 Calm 10.00 Fair CLR 89.6 66.2 46% 92 29.92 0.0
17 10:55 S 3 10.00 Fair CLR 89.6 66.2 46% 92 29.92 0.0
17 10:35 W 3 10.00 Fair CLR 89.6 68 49% 93 29.92 0.0
17 10:15 Calm 10.00 Fair CLR 87.8 68 52% 91 29.93 0.0
17 09:55 W 3 10.00 Fair CLR 87.8 69.8 55% 93 29.93 0.0
17 09:35 W 6 10.00 Fair CLR 86 68 55% 89 29.93 0.0
17 09:15 W 3 10.00 Fair CLR 84.2 68 58% 87 29.94 0.0
17 08:55 Calm 10.00 Fair CLR 82.4 69.8 66% 86 29.94 0.0
17 08:35 Calm 10.00 Fair CLR 80.6 69.8 70% 84 29.94 0.0
17 08:15 SW 3 10.00 Fair CLR 78.8 69.8 74% 81 29.94 0.0
17 07:35 Calm 10.00 Fair CLR 75.2 69.8 83% 75 29.93 0.0
17 07:15 Calm 10.00 Fair CLR 71.6 69.8 94% 29.92 0.0
17 06:55 Calm 10.00 Fair CLR 71.6 69.8 94% 29.91 0.0
17 06:35 Calm 10.00 Fair CLR 71.6 69.8 94% 29.91 0.0
17 06:15 Calm 10.00 Fair CLR 71.6 69.8 94% 29.89 0.0
17 05:55 Calm 10.00 Fair CLR 71.6 69.8 94% 29.89 0.0
17 05:35 Calm 10.00 Fair CLR 71.6 69.8 94% 29.88 0.0
17 05:15 Calm 10.00 Fair CLR 71.6 69.8 94% 29.88 0.0
17 04:55 S 3 10.00 Fair CLR 73.4 69.8 89% 29.88 0.0
17 04:35 Calm 10.00 Fair CLR 73.4 69.8 89% 29.88 0.0
17 04:15 Calm 10.00 Fair CLR 73.4 69.8 89% 29.87 0.0
17 03:55 Calm 10.00 Fair CLR 73.4 69.8 89% 29.87 0.0
17 03:35 SW 3 10.00 Fair CLR 73.4 69.8 89% 29.87 0.0
17 03:15 Calm 10.00 Fair CLR 73.4 69.8 89% 29.87 0.0
17 02:55 Calm 10.00 Fair CLR 73.4 69.8 89% 29.87 0.0
17 02:35 Calm 10.00 Fair CLR 75.2 69.8 83% 75 29.87 0.0
17 02:15 Calm 10.00 Fair CLR 77 68 74% 79 29.88 0.0
17 01:55 Calm 10.00 Fair CLR 77 68 74% 79 29.88 0.0
17 01:35 Calm 10.00 Fair CLR 75.2 68 78% 76 29.88 0.0
17 01:15 Calm 10.00 Fair CLR 77 68 74% 79 29.88 0.0
17 00:55 E 3 10.00 Fair CLR 77 68 74% 79 29.88 0.0
17 00:35 S 3 10.00 Fair CLR 78.8 68 70% 81 29.88 0.0
17 00:15 SW 5 10.00 Fair CLR 78.8 68 70% 81 29.89 0.0
16 23:55 SW 3 10.00 Fair CLR 78.8 68 70% 81 29.88 0.0
16 23:35 W 3 10.00 Fair CLR 78.8 68 70% 81 29.89 0.0
16 23:15 SW 6 10.00 Fair CLR 78.8 68 70% 81 29.89 0.0
16 22:55 SW 5 10.00 Fair CLR 78.8 68 70% 81 29.89 0.0
16 22:35 W 5 10.00 Partly Cloudy SCT120 78.8 66.2 65% 81 29.89 0.0
16 22:15 W 9 10.00 Light Drizzle SCT120 80.6 64.4 58% 82 29.9 0.0
16 21:55 W 8 10.00 Light Rain SCT065 82.4 64.4 55% 84 29.89 0.0
16 21:35 SW 12 G 18 10.00 Fair CLR 86 64.4 49% 87 29.89 0.0
16 21:15 SW 8 10.00 Fair CLR 86 69.8 59% 91 29.88 0.0
16 20:55 W 8 10.00 Fair CLR 87.8 71.6 59% 94 29.87 0.0
16 20:35 S 7 10.00 Fair CLR 87.8 69.8 55% 93 29.85 0.0
16 20:15 S 7 10.00 Fair CLR 89.6 69.8 52% 95 29.85 0.0
16 19:55 S 8 10.00 Fair CLR 89.6 69.8 52% 95 29.84 0.0
16 19:35 S 9 10.00 Fair CLR 91.4 69.8 49% 97 29.84 0.0
16 19:15 S 7 10.00 Fair CLR 91.4 71.6 52% 99 29.84 0.0
16 18:55 S 12 G 20 10.00 Fair CLR 93.2 71.6 50% 101 29.83 0.0
16 18:35 S 10 G 17 10.00 Fair CLR 95 71.6 47% 103 29.83 0.0
16 18:15 S 12 G 16 10.00 Fair CLR 95 71.6 47% 103 29.83 0.0
16 17:55 S 10 10.00 Fair CLR 95 69.8 44% 101 29.81 0.0
16 17:35 SW 12 G 22 10.00 Fair CLR 96.8 69.8 42% 103 29.81 0.0
16 17:15 S 12 G 22 10.00 Fair CLR 96.8 69.8 42% 103 29.81 0.0
16 16:55 S 14 G 21 10.00 Fair CLR 96.8 69.8 42% 103 29.81 0.0
16 16:35 S 14 10.00 Fair CLR 98.6 68 37% 104 29.81 0.0
16 16:15 S 14 G 22 10.00 Fair CLR 98.6 68 37% 104 29.82 0.0
16 15:55 S 14 G 21 10.00 Fair CLR 98.6 68 37% 104 29.83 0.0
16 15:35 S 14 G 20 10.00 Fair CLR 96.8 68 39% 102 29.84 0.0
16 15:15 S 12 G 17 10.00 Fair CLR 96.8 69.8 42% 103 29.84 0.0
16 14:55 S 14 G 17 10.00 Fair CLR 96.8 69.8 42% 103 29.85 0.0
Date Time (edt) Wind (mph) Vis. (mi.) Weather Sky Cond. Air Dwpt Max. Min. Relative Humidity Wind Chill (°F) Heat Index (°F) altimeter (in) sea level (mb) 1 hr 3 hr 6 hr
6 hour
Temperature (ºF) Pressure Precipitation (in)